Flag for Germany Weather past 2 weeks in Rüsselsheim, Hesse, Germany

Now
63 °F

Sunny.


Feels Like: 63 °F
Forecast: 43 / 61 °F
Wind: 7 mph from Northwest

Location: Wiesbaden Airport

Current Time: Apr 21, 2015 at 10:16:21 PM

Latest Report: Apr 21, 2015 at 8:58 PM


Visibility: N/A

Pressure: 30.34 "Hg

Humidity: 42%

Dew point: 39 °F

Location of RüsselsheimLocation

Historic Weather in Rüsselsheim — Graph

°F

Rüsselsheim temperature yesterday

Maximum temperature yesterday: 70 °F (at 5:55 PM)
Minimum temperature yesterday: 43 °F (at 6:00 AM)
Average temperature yesterday: 59 °F

Past Weeks' High & Low Weather Summary

 TemperatureHumidityPressure
High76 °F (Apr 15, 3:58 PM)97% (Apr 10, 6:58 AM)30.84 "Hg (Apr 10, 6:58 AM)
Low31 °F (Apr 7, 6:58 AM)23% (Apr 21, 2:58 PM)29.85 "Hg (Apr 16, 6:58 PM)
Average54 °F59%30.27 "Hg
* Reported Apr 6 8:58 PM — Apr 21 8:58 PM, Rüsselsheim, Weather by CustomWeather, © 2015

Note: Actual official high and low records may vary slightly from our data, if they occured in-between our weather recording intervals... More about our weather records

Advertising

Rüsselsheim weather history for previous 24 hours

 ConditionsComfort  
Time TempWeatherWind HumidityBarometerVisibility
8:58 PM
Tue, Apr 21
63 °FSunny.7 mph42%30.34 "HgN/A
7:58 PM68 °FSunny.9 mph40%30.32 "HgN/A
6:58 PM72 °FSunny.10 mph30%30.32 "HgN/A
5:58 PM73 °FSunny.10 mph25%30.32 "HgN/A
4:58 PM73 °FSunny.6 mph23%30.33 "HgN/A
3:58 PM74 °FSunny.5 mph25%30.34 "HgN/A
2:58 PM73 °FSunny.7 mph23%30.36 "Hg5 mi
1:58 PM71 °FSunny.6 mph27%30.38 "HgN/A
12:58 PM66 °FSunny.No wind46%30.40 "HgN/A
11:58 AM64 °FSunny.3 mph49%30.41 "HgN/A
10:58 AM62 °FSunny.5 mph51%30.41 "HgN/A
9:58 AM58 °FSunny.No wind55%30.41 "HgN/A
8:58 AM54 °FSunny.3 mph67%30.42 "HgN/A
7:58 AM50 °FSunny.1 mph71%30.40 "HgN/A
6:58 AM48 °FClear.2 mph66%30.38 "HgN/A
5:58 AM46 °FClear.5 mph71%30.36 "HgN/A
4:58 AM48 °FClear.2 mph66%30.36 "HgN/A
3:58 AM46 °FClear.3 mph69%30.36 "HgN/A
2:58 AM52 °FClear.6 mph58%30.35 "HgN/A
1:58 AM48 °FClear.5 mph65%30.34 "HgN/A
12:58 AM51 °FClear.No wind59%30.34 "HgN/A
11:58 PM
Mon, Apr 20
54 °FClear.8 mph51%30.33 "HgN/A
10:58 PM57 °FClear.6 mph44%30.33 "HgN/A
Weather by CustomWeather, © 2015

See weather overviewHow to use our weather pages